Time,TemperatureF,DewpointF,PressureIn,WindDirection,WindDirectionDegrees,WindSpeedMPH,WindSpeedGustMPH,Humidity,HourlyPrecipIn,Conditions,Clouds,dailyrainin,SoftwareType,DateUTC
2013-05-07 00:02:00,54.0,43.0,30.05,NE,37,0.0,0.0,67,0.00,,,0.00,,2013-05-07 05:02:00,
2013-05-07 00:12:00,54.0,43.0,30.05,NE,37,0.0,0.0,67,0.00,,,0.00,,2013-05-07 05:12:00,
2013-05-07 00:22:00,53.0,42.0,30.05,NE,37,0.0,0.0,67,0.00,,,0.00,,2013-05-07 05:22:00,
2013-05-07 00:32:00,53.0,42.0,30.05,NE,37,0.0,0.0,67,0.00,,,0.00,,2013-05-07 05:32:00,
2013-05-07 00:42:00,53.0,42.0,30.05,NE,37,0.0,0.0,67,0.00,,,0.00,,2013-05-07 05:42:00,
2013-05-07 00:52:00,52.0,41.0,30.05,NE,37,0.0,0.0,67,0.00,,,0.00,,2013-05-07 05:52:00,
2013-05-07 01:02:00,53.0,42.0,30.05,NE,37,0.0,0.0,67,0.00,,,0.00,,2013-05-07 06:02:00,
2013-05-07 01:12:00,53.0,42.0,30.05,NE,37,0.0,0.0,67,0.00,,,0.00,,2013-05-07 06:12:00,
2013-05-07 01:22:00,53.0,42.0,30.05,NE,37,0.0,0.0,67,0.00,,,0.00,,2013-05-07 06:22:00,
2013-05-07 01:32:00,52.0,41.0,30.05,NE,37,0.0,0.0,67,0.00,,,0.00,,2013-05-07 06:32:00,
2013-05-07 01:42:00,52.0,41.0,30.05,NE,37,0.0,0.0,67,0.00,,,0.00,,2013-05-07 06:42:00,
2013-05-07 01:52:00,52.0,41.0,30.05,NE,37,0.0,0.0,67,0.00,,,0.00,,2013-05-07 06:52:00,
2013-05-07 02:02:00,51.0,40.0,30.05,NE,37,0.0,0.0,67,0.00,,,0.00,,2013-05-07 07:02:00,
2013-05-07 02:11:00,51.0,40.0,30.05,NE,37,0.0,0.0,67,0.00,,,0.00,,2013-05-07 07:11:00,
2013-05-07 02:22:00,51.0,40.0,30.05,NE,37,0.0,0.0,67,0.00,,,0.00,,2013-05-07 07:22:00,
2013-05-07 02:31:00,50.0,39.0,30.05,NE,53,3.0,3.0,67,0.00,,,0.00,,2013-05-07 07:31:00,
2013-05-07 02:42:00,50.0,39.0,30.05,NE,53,3.0,3.0,67,0.00,,,0.00,,2013-05-07 07:42:00,
2013-05-07 02:52:00,49.0,49.0,30.05,NE,52,0.0,0.0,99,0.00,,,0.00,,2013-05-07 07:52:00,
2013-05-07 03:02:00,50.0,50.0,30.05,NE,52,0.0,2.0,99,0.00,,,0.00,,2013-05-07 08:02:00,
2013-05-07 03:11:00,50.0,50.0,30.05,NE,52,0.0,2.0,99,0.00,,,0.00,,2013-05-07 08:11:00,
2013-05-07 03:21:00,50.0,50.0,30.04,SSW,209,3.0,4.0,99,0.00,,,0.00,,2013-05-07 08:21:00,
2013-05-07 03:31:00,50.0,50.0,30.04,SW,217,3.0,3.0,99,0.00,,,0.00,,2013-05-07 08:31:00,
2013-05-07 03:41:00,50.0,50.0,30.04,SW,217,3.0,3.0,99,0.00,,,0.00,,2013-05-07 08:41:00,
2013-05-07 03:52:00,51.0,51.0,30.04,WSW,245,3.0,3.0,99,0.00,,,0.00,,2013-05-07 08:52:00,
2013-05-07 04:01:00,51.0,51.0,30.04,SSW,210,2.0,3.0,99,0.00,,,0.00,,2013-05-07 09:01:00,
2013-05-07 04:11:00,51.0,51.0,30.04,SSW,210,2.0,3.0,99,0.00,,,0.00,,2013-05-07 09:11:00,
2013-05-07 04:22:00,51.0,51.0,30.04,SSW,207,2.0,3.0,99,0.00,,,0.00,,2013-05-07 09:22:00,
2013-05-07 04:33:00,51.0,51.0,30.04,SSW,212,0.0,1.0,99,0.00,,,0.00,,2013-05-07 09:33:00,
2013-05-07 04:42:00,51.0,51.0,30.04,SSW,212,0.0,1.0,99,0.00,,,0.00,,2013-05-07 09:42:00,
2013-05-07 04:52:00,48.0,48.0,30.04,SW,216,0.0,0.0,99,0.00,,,0.00,,2013-05-07 09:52:00,
2013-05-07 05:02:00,48.0,48.0,30.04,WSW,242,2.0,3.0,99,0.00,,,0.00,,2013-05-07 10:02:00,
2013-05-07 05:12:00,48.0,48.0,30.04,WSW,242,2.0,3.0,99,0.00,,,0.00,,2013-05-07 10:12:00,
2013-05-07 05:23:00,48.0,48.0,30.04,WSW,247,0.0,0.0,99,0.00,,,0.00,,2013-05-07 10:23:00,
2013-05-07 05:32:00,49.0,49.0,30.04,WSW,247,0.0,0.0,99,0.00,,,0.00,,2013-05-07 10:32:00,
2013-05-07 05:42:00,47.0,47.0,30.05,SSE,147,0.0,0.0,99,0.00,,,0.00,,2013-05-07 10:42:00,
2013-05-07 05:52:00,47.0,47.0,30.05,SSE,147,0.0,0.0,99,0.00,,,0.00,,2013-05-07 10:52:00,
2013-05-07 06:02:00,47.0,47.0,30.05,SSE,147,0.0,0.0,99,0.00,,,0.00,,2013-05-07 11:02:00,
2013-05-07 06:12:00,47.0,47.0,30.05,SSE,147,0.0,0.0,99,0.00,,,0.00,,2013-05-07 11:12:00,
2013-05-07 06:22:00,46.0,46.0,30.05,SSE,147,0.0,0.0,99,0.00,,,0.00,,2013-05-07 11:22:00,
2013-05-07 06:32:00,46.0,46.0,30.05,SSE,147,0.0,0.0,99,0.00,,,0.00,,2013-05-07 11:32:00,
2013-05-07 06:42:00,46.0,46.0,30.05,SSE,147,0.0,0.0,99,0.00,,,0.00,,2013-05-07 11:42:00,
2013-05-07 06:52:00,46.0,46.0,30.06,SSE,147,0.0,0.0,99,0.00,,,0.00,,2013-05-07 11:52:00,
2013-05-07 07:02:00,46.0,46.0,30.05,SSE,147,0.0,0.0,99,0.00,,,0.00,,2013-05-07 12:02:00,
2013-05-07 07:11:00,46.0,46.0,30.05,SSE,147,0.0,0.0,99,0.00,,,0.00,,2013-05-07 12:11:00,
2013-05-07 07:21:00,47.0,47.0,30.06,SSW,203,2.0,3.0,99,0.00,,,0.00,,2013-05-07 12:21:00,
2013-05-07 07:32:00,48.0,46.0,30.06,SSW,193,3.0,3.0,94,0.00,,,0.00,,2013-05-07 12:32:00,
2013-05-07 07:42:00,48.0,46.0,30.06,SSW,193,3.0,3.0,94,0.00,,,0.00,,2013-05-07 12:42:00,
2013-05-07 07:52:00,51.0,49.0,30.07,SSW,197,2.0,2.0,94,0.00,,,0.00,,2013-05-07 12:52:00,
2013-05-07 08:02:00,52.0,50.0,30.08,WSW,245,2.0,2.0,93,0.00,,,0.00,,2013-05-07 13:02:00,
2013-05-07 08:11:00,52.0,50.0,30.08,WSW,245,2.0,2.0,93,0.00,,,0.00,,2013-05-07 13:11:00,
2013-05-07 08:21:00,54.0,52.0,30.08,WSW,252,1.0,1.0,92,0.00,,,0.00,,2013-05-07 13:21:00,
2013-05-07 08:32:00,55.0,53.0,30.08,WSW,238,2.0,3.0,92,0.00,,,0.00,,2013-05-07 13:32:00,
2013-05-07 08:42:00,55.0,53.0,30.08,WSW,238,2.0,3.0,92,0.00,,,0.00,,2013-05-07 13:42:00,
2013-05-07 08:52:00,56.0,53.0,30.08,SW,220,0.0,3.0,90,0.00,,,0.00,,2013-05-07 13:52:00,
2013-05-07 09:02:00,56.0,52.0,30.08,West,266,3.0,5.0,87,0.00,,,0.00,,2013-05-07 14:02:00,
2013-05-07 09:11:00,56.0,52.0,30.08,West,266,3.0,5.0,87,0.00,,,0.00,,2013-05-07 14:11:00,
2013-05-07 09:21:00,58.0,53.0,30.08,NNW,327,2.0,2.0,83,0.00,,,0.00,,2013-05-07 14:21:00,
2013-05-07 09:31:00,58.0,53.0,30.08,SW,225,2.0,4.0,82,0.00,,,0.00,,2013-05-07 14:31:00,
2013-05-07 09:42:00,58.0,53.0,30.08,SW,225,2.0,4.0,82,0.00,,,0.00,,2013-05-07 14:42:00,
2013-05-07 09:52:00,60.0,53.0,30.08,SE,135,2.0,3.0,78,0.00,,,0.00,,2013-05-07 14:52:00,
2013-05-07 10:01:00,61.0,53.0,30.08,East,81,3.0,3.0,76,0.00,,,0.00,,2013-05-07 15:01:00,
2013-05-07 10:12:00,61.0,53.0,30.08,East,81,3.0,3.0,76,0.00,,,0.00,,2013-05-07 15:12:00,
2013-05-07 10:21:00,63.0,55.0,30.08,SE,128,0.0,3.0,75,0.00,,,0.00,,2013-05-07 15:21:00,
2013-05-07 10:33:00,64.0,56.0,30.07,ENE,62,6.0,7.0,75,0.00,,,0.00,,2013-05-07 15:33:00,
2013-05-07 10:42:00,64.0,56.0,30.07,ENE,62,6.0,7.0,75,0.00,,,0.00,,2013-05-07 15:42:00,
2013-05-07 10:53:00,64.0,56.0,30.07,ENE,62,6.0,7.0,75,0.00,,,0.00,,2013-05-07 15:53:00,
2013-05-07 11:03:00,65.0,58.0,30.07,ENE,64,2.0,3.0,78,0.00,,,0.00,,2013-05-07 16:03:00,
2013-05-07 11:12:00,66.0,59.0,30.06,SSW,210,5.0,6.0,78,0.00,,,0.00,,2013-05-07 16:12:00,
2013-05-07 11:22:00,66.0,59.0,30.06,SSW,210,5.0,6.0,78,0.00,,,0.00,,2013-05-07 16:22:00,
2013-05-07 11:32:00,66.0,59.0,30.06,SSW,197,5.0,9.0,78,0.00,,,0.00,,2013-05-07 16:32:00,
2013-05-07 11:41:00,66.0,59.0,30.06,SSW,197,5.0,9.0,78,0.00,,,0.00,,2013-05-07 16:41:00,
2013-05-07 11:52:00,66.0,59.0,30.06,SSW,197,5.0,9.0,78,0.00,,,0.00,,2013-05-07 16:52:00,
2013-05-07 12:01:00,67.0,60.0,30.06,South,189,9.0,11.0,78,0.00,,,0.00,,2013-05-07 17:01:00,
2013-05-07 12:12:00,68.0,61.0,30.05,SSW,200,7.0,11.0,78,0.00,,,0.00,,2013-05-07 17:12:00,
2013-05-07 12:21:00,68.0,61.0,30.05,SSW,200,7.0,11.0,78,0.00,,,0.00,,2013-05-07 17:21:00,
2013-05-07 12:31:00,68.0,59.0,30.05,South,183,7.0,9.0,73,0.00,,,0.00,,2013-05-07 17:31:00,
2013-05-07 12:41:00,69.0,55.0,30.04,SSW,212,7.0,9.0,60,0.00,,,0.00,,2013-05-07 17:41:00,
2013-05-07 12:52:00,69.0,55.0,30.04,SSW,212,7.0,9.0,60,0.00,,,0.00,,2013-05-07 17:52:00,
2013-05-07 13:01:00,70.0,55.0,30.04,SSW,200,9.0,11.0,60,0.00,,,0.00,,2013-05-07 18:01:00,
2013-05-07 13:11:00,70.0,55.0,30.03,SSW,194,6.0,10.0,60,0.00,,,0.00,,2013-05-07 18:11:00,
2013-05-07 13:21:00,70.0,55.0,30.03,SSW,194,6.0,10.0,60,0.00,,,0.00,,2013-05-07 18:21:00,
2013-05-07 13:31:00,70.0,55.0,30.03,South,190,9.0,12.0,60,0.00,,,0.00,,2013-05-07 18:31:00,
2013-05-07 13:41:00,70.0,55.0,30.03,South,190,9.0,12.0,60,0.00,,,0.00,,2013-05-07 18:41:00,
2013-05-07 13:52:00,70.0,55.0,30.02,South,170,6.0,8.0,60,0.00,,,0.00,,2013-05-07 18:52:00,
2013-05-07 14:02:00,70.0,55.0,30.01,NW,318,1.0,4.0,60,0.00,,,0.00,,2013-05-07 19:02:00,
2013-05-07 14:11:00,70.0,55.0,30.01,NW,318,1.0,4.0,60,0.00,,,0.00,,2013-05-07 19:11:00,
2013-05-07 14:21:00,72.0,57.0,30.00,SW,229,9.0,14.0,60,0.00,,,0.00,,2013-05-07 19:21:00,
2013-05-07 14:32:00,72.0,57.0,30.00,SSW,199,13.0,15.0,60,0.00,,,0.00,,2013-05-07 19:32:00,
2013-05-07 14:42:00,72.0,57.0,30.00,SSW,199,13.0,15.0,60,0.00,,,0.00,,2013-05-07 19:42:00,
2013-05-07 14:52:00,72.0,57.0,30.00,SSW,200,3.0,4.0,60,0.00,,,0.00,,2013-05-07 19:52:00,
2013-05-07 15:02:00,72.0,57.0,29.99,South,189,5.0,11.0,60,0.00,,,0.00,,2013-05-07 20:02:00,
2013-05-07 15:11:00,72.0,57.0,29.99,South,189,5.0,11.0,60,0.00,,,0.00,,2013-05-07 20:11:00,
2013-05-07 15:21:00,72.0,57.0,29.99,SW,233,7.0,15.0,60,0.00,,,0.00,,2013-05-07 20:21:00,
2013-05-07 15:32:00,72.0,57.0,29.98,SSW,209,7.0,8.0,60,0.00,,,0.00,,2013-05-07 20:32:00,
2013-05-07 15:42:00,72.0,57.0,29.98,SSW,209,7.0,8.0,60,0.00,,,0.00,,2013-05-07 20:42:00,
2013-05-07 15:52:00,73.0,58.0,29.98,SSW,200,6.0,7.0,60,0.00,,,0.00,,2013-05-07 20:52:00,
2013-05-07 16:01:00,73.0,58.0,29.97,SW,223,5.0,5.0,60,0.00,,,0.00,,2013-05-07 21:01:00,
2013-05-07 16:11:00,73.0,58.0,29.97,SW,223,5.0,5.0,60,0.00,,,0.00,,2013-05-07 21:11:00,
2013-05-07 16:21:00,73.0,58.0,29.96,South,180,10.0,13.0,60,0.00,,,0.00,,2013-05-07 21:21:00,
2013-05-07 16:32:00,72.0,57.0,29.96,SW,220,8.0,10.0,60,0.00,,,0.00,,2013-05-07 21:32:00,
2013-05-07 16:42:00,72.0,57.0,29.96,SW,220,8.0,10.0,60,0.00,,,0.00,,2013-05-07 21:42:00,
2013-05-07 16:53:00,72.0,57.0,29.95,SSE,157,9.0,14.0,60,0.00,,,0.00,,2013-05-07 21:53:00,
2013-05-07 17:02:00,71.0,56.0,29.95,SSW,210,4.0,7.0,60,0.00,,,0.00,,2013-05-07 22:02:00,
2013-05-07 17:13:00,71.0,56.0,29.95,SSW,210,4.0,7.0,60,0.00,,,0.00,,2013-05-07 22:13:00,
2013-05-07 17:22:00,71.0,56.0,29.95,South,183,5.0,7.0,60,0.00,,,0.00,,2013-05-07 22:22:00,
2013-05-07 17:32:00,71.0,56.0,29.95,South,183,5.0,7.0,60,0.00,,,0.00,,2013-05-07 22:32:00,
2013-05-07 17:42:00,71.0,56.0,29.95,SSE,155,7.0,10.0,60,0.00,,,0.00,,2013-05-07 22:42:00,
2013-05-07 17:52:00,71.0,56.0,29.95,SSE,155,7.0,10.0,60,0.00,,,0.00,,2013-05-07 22:52:00,
2013-05-07 18:02:00,71.0,56.0,29.94,East,95,0.0,0.0,60,0.00,,,0.00,,2013-05-07 23:02:00,
2013-05-07 18:12:00,71.0,56.0,29.94,SSE,157,8.0,12.0,60,0.00,,,0.00,,2013-05-07 23:12:00,
2013-05-07 18:21:00,71.0,56.0,29.94,SSE,157,8.0,12.0,60,0.00,,,0.00,,2013-05-07 23:21:00,
2013-05-07 18:32:00,71.0,56.0,29.94,South,188,0.0,0.0,60,0.00,,,0.00,,2013-05-07 23:32:00,
2013-05-07 18:41:00,70.0,55.0,29.94,South,188,0.0,0.0,60,0.00,,,0.00,,2013-05-07 23:41:00,
2013-05-07 18:52:00,70.0,55.0,29.94,South,188,0.0,0.0,60,0.00,,,0.00,,2013-05-07 23:52:00,
2013-05-07 19:01:00,70.0,55.0,29.94,South,188,0.0,0.0,60,0.00,,,0.00,,2013-05-08 00:01:00,
2013-05-07 19:11:00,64.0,50.0,29.95,NW,317,11.0,16.0,60,0.00,,,0.00,,2013-05-08 00:11:00,
2013-05-07 19:21:00,64.0,50.0,29.95,NW,317,11.0,16.0,60,0.00,,,0.00,,2013-05-08 00:21:00,
2013-05-07 19:32:00,62.0,48.0,29.94,NW,307,5.0,9.0,60,0.00,,,0.00,,2013-05-08 00:32:00,
2013-05-07 19:42:00,62.0,48.0,29.94,SSE,164,0.0,0.0,60,0.00,,,0.00,,2013-05-08 00:42:00,
2013-05-07 19:52:00,62.0,48.0,29.94,SSE,164,0.0,0.0,60,0.00,,,0.00,,2013-05-08 00:52:00,
2013-05-07 20:02:00,62.0,48.0,29.94,SSE,164,0.0,0.0,60,0.00,,,0.00,,2013-05-08 01:02:00,
2013-05-07 20:11:00,61.0,47.0,29.94,NNE,13,0.0,0.0,60,0.00,,,0.00,,2013-05-08 01:11:00,
2013-05-07 20:21:00,61.0,47.0,29.94,NNE,13,0.0,0.0,60,0.00,,,0.00,,2013-05-08 01:21:00,
2013-05-07 20:32:00,61.0,47.0,29.94,NNE,13,0.0,0.0,60,0.00,,,0.00,,2013-05-08 01:32:00,
2013-05-07 20:42:00,60.0,46.0,29.93,NNE,13,0.0,0.0,60,0.00,,,0.00,,2013-05-08 01:42:00,
2013-05-07 20:52:00,60.0,46.0,29.93,NNE,13,0.0,0.0,60,0.00,,,0.00,,2013-05-08 01:52:00,
2013-05-07 21:01:00,59.0,45.0,29.93,NE,53,1.0,4.0,60,0.00,,,0.00,,2013-05-08 02:01:00,
2013-05-07 21:12:00,59.0,45.0,29.93,NE,53,1.0,4.0,60,0.00,,,0.00,,2013-05-08 02:12:00,
2013-05-07 21:22:00,59.0,45.0,29.94,ENE,68,3.0,5.0,60,0.00,,,0.00,,2013-05-08 02:22:00,
2013-05-07 21:31:00,59.0,45.0,29.95,ENE,68,0.0,2.0,60,0.00,,,0.00,,2013-05-08 02:31:00,
2013-05-07 21:42:00,60.0,46.0,29.96,NE,50,0.0,6.0,60,0.00,,,0.00,,2013-05-08 02:42:00,
2013-05-07 21:52:00,60.0,46.0,29.96,NE,50,0.0,6.0,60,0.00,,,0.00,,2013-05-08 02:52:00,
2013-05-07 22:01:00,61.0,47.0,29.96,WNW,289,0.0,0.0,60,0.01,,,0.01,,2013-05-08 03:01:00,
2013-05-07 22:11:00,61.0,47.0,29.96,WNW,289,0.0,0.0,60,0.01,,,0.01,,2013-05-08 03:11:00,
2013-05-07 22:21:00,60.0,46.0,29.96,North,2,4.0,5.0,60,0.08,,,0.08,,2013-05-08 03:21:00,
2013-05-07 22:32:00,60.0,46.0,29.97,ESE,106,0.0,0.0,60,0.08,,,0.08,,2013-05-08 03:32:00,
2013-05-07 22:43:00,60.0,46.0,29.97,ESE,106,0.0,0.0,60,0.08,,,0.08,,2013-05-08 03:43:00,
2013-05-07 22:52:00,59.0,45.0,29.96,ENE,64,0.0,0.0,60,0.08,,,0.08,,2013-05-08 03:52:00,
2013-05-07 23:02:00,59.0,45.0,29.96,ENE,64,0.0,0.0,60,0.07,,,0.08,,2013-05-08 04:02:00,
2013-05-07 23:13:00,59.0,45.0,29.96,ENE,64,0.0,0.0,60,0.07,,,0.08,,2013-05-08 04:13:00,
2013-05-07 23:23:00,59.0,45.0,29.96,ENE,64,0.0,0.0,60,0.00,,,0.08,,2013-05-08 04:23:00,
2013-05-07 23:33:00,59.0,45.0,29.95,ENE,64,0.0,0.0,60,0.00,,,0.08,,2013-05-08 04:33:00,
2013-05-07 23:42:00,59.0,45.0,29.95,ENE,64,0.0,0.0,60,0.00,,,0.08,,2013-05-08 04:42:00,
2013-05-07 23:53:00,59.0,45.0,29.95,ENE,64,0.0,0.0,60,0.01,,,0.09,,2013-05-08 04:53:00,